Year,Month,Day,Hour,Minute,Value (Times are PST for temperature in C)
2002,04,04,00,00,6.90
2002,04,04,00,01,6.90
2002,04,04,00,02,6.80
2002,04,04,00,03,6.80
2002,04,04,00,04,6.80
2002,04,04,00,05,6.80
2002,04,04,00,06,6.80
2002,04,04,00,07,6.70
2002,04,04,00,08,6.70
2002,04,04,00,09,6.70
2002,04,04,00,10,6.70
2002,04,04,00,11,6.60
2002,04,04,00,12,6.60
2002,04,04,00,13,6.60
2002,04,04,00,14,6.60
2002,04,04,00,15,6.60
2002,04,04,00,16,6.40
2002,04,04,00,17,6.40
2002,04,04,00,18,6.40
2002,04,04,00,19,6.40
2002,04,04,00,20,6.40
2002,04,04,00,21,6.40
2002,04,04,00,22,6.40
2002,04,04,00,23,6.40
2002,04,04,00,24,6.40
2002,04,04,00,25,6.40
2002,04,04,00,26,6.40
2002,04,04,00,27,6.40
2002,04,04,00,28,6.40
2002,04,04,00,29,6.40
2002,04,04,00,30,6.40
2002,04,04,00,31,6.40
2002,04,04,00,32,6.40
2002,04,04,00,33,6.40
2002,04,04,00,34,6.40
2002,04,04,00,35,6.40
2002,04,04,00,36,6.40
2002,04,04,00,37,6.40
2002,04,04,00,38,6.40
2002,04,04,00,39,6.40
2002,04,04,00,40,6.50
2002,04,04,00,41,6.60
2002,04,04,00,42,6.60
2002,04,04,00,43,6.60
2002,04,04,00,44,6.60
2002,04,04,00,45,6.60
2002,04,04,00,46,6.60
2002,04,04,00,47,6.70
2002,04,04,00,48,6.70
2002,04,04,00,49,6.70
2002,04,04,00,50,6.70
2002,04,04,00,51,6.70
2002,04,04,00,52,6.70
2002,04,04,00,53,6.70
2002,04,04,00,54,6.80
2002,04,04,00,55,6.80
2002,04,04,00,56,6.80
2002,04,04,00,57,6.70
2002,04,04,00,58,6.70
2002,04,04,00,59,6.70
2002,04,04,01,00,6.70
2002,04,04,01,01,6.60
2002,04,04,01,02,6.60
2002,04,04,01,03,6.60
2002,04,04,01,04,6.60
2002,04,04,01,05,6.60
2002,04,04,01,06,6.60
2002,04,04,01,07,6.60
2002,04,04,01,08,6.60
2002,04,04,01,09,6.60
2002,04,04,01,10,6.60
2002,04,04,01,11,6.60
2002,04,04,01,12,6.60
2002,04,04,01,13,6.60
2002,04,04,01,14,6.60
2002,04,04,01,15,6.60
2002,04,04,01,16,6.60
2002,04,04,01,17,6.60
2002,04,04,01,18,6.60
2002,04,04,01,19,6.60
2002,04,04,01,20,6.60
2002,04,04,01,21,6.60
2002,04,04,01,22,6.60
2002,04,04,01,23,6.50
2002,04,04,01,24,6.40
2002,04,04,01,25,6.40
2002,04,04,01,26,6.40
2002,04,04,01,27,6.40
2002,04,04,01,28,6.40
2002,04,04,01,29,6.40
2002,04,04,01,30,6.40
2002,04,04,01,31,6.40
2002,04,04,01,32,6.40
2002,04,04,01,33,6.40
2002,04,04,01,34,6.40
2002,04,04,01,35,6.40
2002,04,04,01,36,6.30
2002,04,04,01,37,6.30
2002,04,04,01,38,6.30
2002,04,04,01,39,6.30
2002,04,04,01,40,6.30
2002,04,04,01,41,6.30
2002,04,04,01,42,6.30
2002,04,04,01,43,6.30
2002,04,04,01,44,6.30
2002,04,04,01,45,6.30
2002,04,04,01,46,6.30
2002,04,04,01,47,6.30
2002,04,04,01,48,6.30
2002,04,04,01,49,6.20
2002,04,04,01,50,6.20
2002,04,04,01,51,6.20
2002,04,04,01,52,6.20
2002,04,04,01,53,6.20
2002,04,04,01,54,6.20
2002,04,04,01,55,6.20
2002,04,04,01,56,6.20
2002,04,04,01,57,6.20
2002,04,04,01,58,6.20
2002,04,04,01,59,6.20
2002,04,04,02,00,6.20
2002,04,04,02,01,6.20
2002,04,04,02,02,6.20
2002,04,04,02,03,6.20
2002,04,04,02,04,6.20
2002,04,04,02,05,6.20
2002,04,04,02,06,6.20
2002,04,04,02,07,6.20
2002,04,04,02,08,6.20
2002,04,04,02,09,6.20
2002,04,04,02,10,6.20
2002,04,04,02,11,6.20
2002,04,04,02,12,6.20
2002,04,04,02,13,6.20
2002,04,04,02,14,6.20
2002,04,04,02,15,6.20
2002,04,04,02,16,6.20
2002,04,04,02,17,6.20
2002,04,04,02,18,6.20
2002,04,04,02,19,6.20
2002,04,04,02,20,6.20
2002,04,04,02,21,6.10
2002,04,04,02,22,6.10
2002,04,04,02,23,6.10
2002,04,04,02,24,6.10
2002,04,04,02,25,6.10
2002,04,04,02,26,6.10
2002,04,04,02,27,6.10
2002,04,04,02,28,6.10
2002,04,04,02,29,6.00
2002,04,04,02,30,5.90
2002,04,04,02,31,5.90
2002,04,04,02,32,5.80
2002,04,04,02,33,5.70
2002,04,04,02,34,5.70
2002,04,04,02,35,5.60
2002,04,04,02,36,5.50
2002,04,04,02,37,5.50
2002,04,04,02,38,5.40
2002,04,04,02,39,5.30
2002,04,04,02,40,5.30
2002,04,04,02,41,5.20
2002,04,04,02,42,5.20
2002,04,04,02,43,5.20
2002,04,04,02,44,5.10
2002,04,04,02,45,5.10
2002,04,04,02,46,5.10
2002,04,04,02,47,5.10
2002,04,04,02,48,5.10
2002,04,04,02,49,4.90
2002,04,04,02,50,4.90
2002,04,04,02,51,5.00
2002,04,04,02,52,5.10
2002,04,04,02,53,5.10
2002,04,04,02,54,5.10
2002,04,04,02,55,5.10
2002,04,04,02,56,5.10
2002,04,04,02,57,5.10
2002,04,04,02,58,5.10
2002,04,04,02,59,5.10
2002,04,04,03,00,5.20
2002,04,04,03,01,5.20
2002,04,04,03,02,5.30
2002,04,04,03,03,5.30
2002,04,04,03,04,5.20
2002,04,04,03,05,5.20
2002,04,04,03,06,5.10
2002,04,04,03,07,5.10
2002,04,04,03,08,5.00
2002,04,04,03,09,4.90
2002,04,04,03,10,4.90
2002,04,04,03,11,4.90
2002,04,04,03,12,4.90
2002,04,04,03,13,4.90
2002,04,04,03,14,4.80
2002,04,04,03,15,4.80
2002,04,04,03,16,4.80
2002,04,04,03,17,4.80
2002,04,04,03,18,4.80
2002,04,04,03,19,4.80
2002,04,04,03,20,4.80
2002,04,04,03,21,4.80
2002,04,04,03,22,4.80
2002,04,04,03,23,4.90
2002,04,04,03,24,4.90
2002,04,04,03,25,4.90
2002,04,04,03,26,4.90
2002,04,04,03,27,4.90
2002,04,04,03,28,4.90
2002,04,04,03,29,5.00
2002,04,04,03,30,5.10
2002,04,04,03,31,5.10
2002,04,04,03,32,5.10
2002,04,04,03,33,5.10
2002,04,04,03,34,5.10
2002,04,04,03,35,5.10
2002,04,04,03,36,5.10
2002,04,04,03,37,5.10
2002,04,04,03,38,5.10
2002,04,04,03,39,5.10
2002,04,04,03,40,5.10
2002,04,04,03,41,5.10
2002,04,04,03,42,5.10
2002,04,04,03,43,5.10
2002,04,04,03,44,5.10
2002,04,04,03,45,5.10
2002,04,04,03,46,5.10
2002,04,04,03,47,5.10
2002,04,04,03,48,5.10
2002,04,04,03,49,5.10
2002,04,04,03,50,5.10
2002,04,04,03,51,5.10
2002,04,04,03,52,5.10
2002,04,04,03,53,5.10
2002,04,04,03,54,5.10
2002,04,04,03,55,5.10
2002,04,04,03,56,5.10
2002,04,04,03,57,5.10
2002,04,04,03,58,5.10
2002,04,04,03,59,5.10
2002,04,04,04,00,5.00
2002,04,04,04,01,4.90
2002,04,04,04,02,4.90
2002,04,04,04,03,4.80
2002,04,04,04,04,4.70
2002,04,04,04,05,4.60
2002,04,04,04,06,4.60
2002,04,04,04,07,4.60
2002,04,04,04,08,4.60
2002,04,04,04,09,4.60
2002,04,04,04,10,4.60
2002,04,04,04,11,4.60
2002,04,04,04,12,4.60
2002,04,04,04,13,4.60
2002,04,04,04,14,4.50
2002,04,04,04,15,4.50
2002,04,04,04,16,4.60
2002,04,04,04,17,4.60
2002,04,04,04,18,4.60
2002,04,04,04,19,4.50
2002,04,04,04,20,4.50
2002,04,04,04,21,4.40
2002,04,04,04,22,4.40
2002,04,04,04,23,4.30
2002,04,04,04,24,4.30
2002,04,04,04,25,4.40
2002,04,04,04,26,4.50
2002,04,04,04,27,4.50
2002,04,04,04,28,4.50
2002,04,04,04,29,4.60
2002,04,04,04,30,4.60
2002,04,04,04,31,4.70
2002,04,04,04,32,4.70
2002,04,04,04,33,4.70
2002,04,04,04,34,4.80
2002,04,04,04,35,4.70
2002,04,04,04,36,4.70
2002,04,04,04,37,4.70
2002,04,04,04,38,4.70
2002,04,04,04,39,4.70
2002,04,04,04,40,4.70
2002,04,04,04,41,4.70
2002,04,04,04,42,4.70
2002,04,04,04,43,4.70
2002,04,04,04,44,4.60
2002,04,04,04,45,4.60
2002,04,04,04,46,4.60
2002,04,04,04,47,4.70
2002,04,04,04,48,4.70
2002,04,04,04,49,4.70
2002,04,04,04,50,4.80
2002,04,04,04,51,4.80
2002,04,04,04,52,4.80
2002,04,04,04,53,4.80
2002,04,04,04,54,4.80
2002,04,04,04,55,4.80
2002,04,04,04,56,4.70
2002,04,04,04,57,4.60
2002,04,04,04,58,4.60
2002,04,04,04,59,4.60
2002,04,04,05,00,4.50
2002,04,04,05,01,4.50
2002,04,04,05,02,4.50
2002,04,04,05,03,4.50
2002,04,04,05,04,4.60
2002,04,04,05,05,4.60
2002,04,04,05,06,4.60
2002,04,04,05,07,4.60
2002,04,04,05,08,4.60
2002,04,04,05,09,4.60
2002,04,04,05,10,4.60
2002,04,04,05,11,4.60
2002,04,04,05,12,4.70
2002,04,04,05,13,4.70
2002,04,04,05,14,4.70
2002,04,04,05,15,4.70
2002,04,04,05,16,4.70
2002,04,04,05,17,4.70
2002,04,04,05,18,4.80
2002,04,04,05,19,4.80
2002,04,04,05,20,4.80
2002,04,04,05,21,4.90
2002,04,04,05,22,4.90
2002,04,04,05,23,4.90
2002,04,04,05,24,4.90
2002,04,04,05,25,4.90
2002,04,04,05,26,5.10
2002,04,04,05,27,5.10
2002,04,04,05,28,5.10
2002,04,04,05,29,5.10
2002,04,04,05,30,5.10
2002,04,04,05,31,5.10
2002,04,04,05,32,5.10
2002,04,04,05,33,5.10
2002,04,04,05,34,5.20
2002,04,04,05,35,5.20
2002,04,04,05,36,5.20
2002,04,04,05,37,5.30
2002,04,04,05,38,5.30
2002,04,04,05,39,5.30
2002,04,04,05,40,5.30
2002,04,04,05,41,5.30
2002,04,04,05,42,5.30
2002,04,04,05,43,5.30
2002,04,04,05,44,5.30
2002,04,04,05,45,5.30
2002,04,04,05,46,5.30
2002,04,04,05,47,5.30
2002,04,04,05,48,5.30
2002,04,04,05,49,5.30
2002,04,04,05,50,5.30
2002,04,04,05,51,5.30
2002,04,04,05,52,5.30
2002,04,04,05,53,5.30
2002,04,04,05,54,5.30
2002,04,04,05,55,5.30
2002,04,04,05,56,5.20
2002,04,04,05,57,5.20
2002,04,04,05,58,5.20
2002,04,04,05,59,5.20
2002,04,04,06,00,5.20
2002,04,04,06,01,5.10
2002,04,04,06,02,5.10
2002,04,04,06,03,5.10
2002,04,04,06,04,5.10
2002,04,04,06,05,5.10
2002,04,04,06,06,5.10
2002,04,04,06,07,5.10
2002,04,04,06,08,5.20
2002,04,04,06,09,5.20
2002,04,04,06,10,5.20
2002,04,04,06,11,5.30
2002,04,04,06,12,5.30
2002,04,04,06,13,5.40
2002,04,04,06,14,5.50
2002,04,04,06,15,5.50
2002,04,04,06,16,5.60
2002,04,04,06,17,5.70
2002,04,04,06,18,5.70
2002,04,04,06,19,5.80
2002,04,04,06,20,5.80
2002,04,04,06,21,5.80
2002,04,04,06,22,5.90
2002,04,04,06,23,5.90
2002,04,04,06,24,5.90
2002,04,04,06,25,6.00
2002,04,04,06,26,6.00
2002,04,04,06,27,6.10
2002,04,04,06,28,6.10
2002,04,04,06,29,6.20
2002,04,04,06,30,6.20
2002,04,04,06,31,6.20
2002,04,04,06,32,6.30
2002,04,04,06,33,6.30
2002,04,04,06,34,6.40
2002,04,04,06,35,6.40
2002,04,04,06,36,6.40
2002,04,04,06,37,6.50
2002,04,04,06,38,6.60
2002,04,04,06,39,6.60
2002,04,04,06,40,6.60
2002,04,04,06,41,6.60
2002,04,04,06,42,6.60
2002,04,04,06,43,6.60
2002,04,04,06,44,6.60
2002,04,04,06,45,6.60
2002,04,04,06,46,6.70
2002,04,04,06,47,6.70
2002,04,04,06,48,6.70
2002,04,04,06,49,6.70
2002,04,04,06,50,6.70
2002,04,04,06,51,6.70
2002,04,04,06,52,6.70
2002,04,04,06,53,6.70
2002,04,04,06,54,6.70
2002,04,04,06,55,6.70
2002,04,04,06,56,6.80
2002,04,04,06,57,6.80
2002,04,04,06,58,6.80
2002,04,04,06,59,6.80
2002,04,04,07,00,6.80
2002,04,04,07,01,6.80
2002,04,04,07,02,6.80
2002,04,04,07,03,6.90
2002,04,04,07,04,6.90
2002,04,04,07,05,7.00
2002,04,04,07,06,7.00
2002,04,04,07,07,7.10
2002,04,04,07,08,7.10
2002,04,04,07,09,7.20
2002,04,04,07,10,7.20
2002,04,04,07,11,7.30
2002,04,04,07,12,7.30
2002,04,04,07,13,7.40
2002,04,04,07,14,7.40
2002,04,04,07,15,7.50
2002,04,04,07,16,7.50
2002,04,04,07,17,7.60
2002,04,04,07,18,7.70
2002,04,04,07,19,7.80
2002,04,04,07,20,7.80
2002,04,04,07,21,7.80
2002,04,04,07,22,7.90
2002,04,04,07,23,7.90
2002,04,04,07,24,7.90
2002,04,04,07,25,8.00
2002,04,04,07,26,8.00
2002,04,04,07,27,8.10
2002,04,04,07,28,8.20
2002,04,04,07,29,8.20
2002,04,04,07,30,8.20
2002,04,04,07,31,8.20
2002,04,04,07,32,8.20
2002,04,04,07,33,8.20
2002,04,04,07,34,8.20
2002,04,04,07,35,8.20
2002,04,04,07,36,8.30
2002,04,04,07,37,8.30
2002,04,04,07,38,8.40
2002,04,04,07,39,8.40
2002,04,04,07,40,8.40
2002,04,04,07,41,8.40
2002,04,04,07,42,8.40
2002,04,04,07,43,8.40
2002,04,04,07,44,8.40
2002,04,04,07,45,8.40
2002,04,04,07,46,8.40
2002,04,04,07,47,8.40
2002,04,04,07,48,8.40
2002,04,04,07,49,8.40
2002,04,04,07,50,8.40
2002,04,04,07,51,8.40
2002,04,04,07,52,8.50
2002,04,04,07,53,8.50
2002,04,04,07,54,8.50
2002,04,04,07,55,8.60
2002,04,04,07,56,8.60
2002,04,04,07,57,8.60
2002,04,04,07,58,8.60
2002,04,04,07,59,8.60
2002,04,04,08,00,8.60
2002,04,04,08,01,8.60
2002,04,04,08,02,8.60
2002,04,04,08,03,8.60
2002,04,04,08,04,8.60
2002,04,04,08,05,8.60
2002,04,04,08,06,8.70
2002,04,04,08,07,8.70
2002,04,04,08,08,8.70
2002,04,04,08,09,8.70
2002,04,04,08,10,8.70
2002,04,04,08,11,8.70
2002,04,04,08,12,8.70
2002,04,04,08,13,8.70
2002,04,04,08,14,8.70
2002,04,04,08,15,8.80
2002,04,04,08,16,8.80
2002,04,04,08,17,8.90
2002,04,04,08,18,8.90
2002,04,04,08,19,9.00
2002,04,04,08,20,9.00
2002,04,04,08,21,9.10
2002,04,04,08,22,9.10
2002,04,04,08,23,9.00
2002,04,04,08,24,9.00
2002,04,04,08,25,9.00
2002,04,04,08,26,9.00
2002,04,04,08,27,8.90
2002,04,04,08,28,8.90
2002,04,04,08,29,9.00
2002,04,04,08,30,9.00
2002,04,04,08,31,9.10
2002,04,04,08,32,9.10
2002,04,04,08,33,9.10
2002,04,04,08,34,9.10
2002,04,04,08,35,9.20
2002,04,04,08,36,9.20
2002,04,04,08,37,9.20
2002,04,04,08,38,9.20
2002,04,04,08,39,9.20
2002,04,04,08,40,9.20
2002,04,04,08,41,9.20
2002,04,04,08,42,9.30
2002,04,04,08,43,9.30
2002,04,04,08,44,9.30
2002,04,04,08,45,9.30
2002,04,04,08,46,9.30
2002,04,04,08,47,9.40
2002,04,04,08,48,9.40
2002,04,04,08,49,9.50
2002,04,04,08,50,9.60
2002,04,04,08,51,9.60
2002,04,04,08,52,9.70
2002,04,04,08,53,9.70
2002,04,04,08,54,9.70
2002,04,04,08,55,9.70
2002,04,04,08,56,9.70
2002,04,04,08,57,9.70
2002,04,04,08,58,9.70
2002,04,04,08,59,9.70
2002,04,04,09,00,9.80
2002,04,04,09,01,9.80
2002,04,04,09,02,9.80
2002,04,04,09,03,9.80
2002,04,04,09,04,9.80
2002,04,04,09,05,9.80
2002,04,04,09,06,9.80
2002,04,04,09,07,9.80
2002,04,04,09,08,9.80
2002,04,04,09,09,9.80
2002,04,04,09,10,9.80
2002,04,04,09,11,9.90
2002,04,04,09,12,9.90
2002,04,04,09,13,9.90
2002,04,04,09,14,9.90
2002,04,04,09,15,9.90
2002,04,04,09,16,9.90
2002,04,04,09,17,9.90
2002,04,04,09,18,10.10
2002,04,04,09,19,10.10
2002,04,04,09,20,10.20
2002,04,04,09,21,10.10
2002,04,04,09,22,10.20
2002,04,04,09,23,10.30
2002,04,04,09,24,10.30
2002,04,04,09,25,10.40
2002,04,04,09,26,10.40
2002,04,04,09,27,10.40
2002,04,04,09,28,10.40
2002,04,04,09,29,10.60
2002,04,04,09,30,10.60
2002,04,04,09,31,10.60
2002,04,04,09,32,10.60
2002,04,04,09,33,10.60
2002,04,04,09,34,10.60
2002,04,04,09,35,10.60
2002,04,04,09,36,10.60
2002,04,04,09,37,10.60
2002,04,04,09,38,10.70
2002,04,04,09,39,10.60
2002,04,04,09,40,10.60
2002,04,04,09,41,10.60
2002,04,04,09,42,10.60
2002,04,04,09,43,10.50
2002,04,04,09,44,10.60
2002,04,04,09,45,10.60
2002,04,04,09,46,10.60
2002,04,04,09,47,10.60
2002,04,04,09,48,10.50
2002,04,04,09,49,10.40
2002,04,04,09,50,10.40
2002,04,04,09,51,10.40
2002,04,04,09,52,10.40
2002,04,04,09,53,10.40
2002,04,04,09,54,10.40
2002,04,04,09,55,10.40
2002,04,04,09,56,10.40
2002,04,04,09,57,10.40
2002,04,04,09,58,10.30
2002,04,04,09,59,10.20
2002,04,04,10,00,10.30
2002,04,04,10,01,10.40
2002,04,04,10,02,10.50
2002,04,04,10,03,10.50
2002,04,04,10,04,10.60
2002,04,04,10,05,10.70
2002,04,04,10,06,10.70
2002,04,04,10,07,10.80
2002,04,04,10,08,10.80
2002,04,04,10,09,10.80
2002,04,04,10,10,10.80
2002,04,04,10,11,10.80
2002,04,04,10,12,10.80
2002,04,04,10,13,10.80
2002,04,04,10,14,10.90
2002,04,04,10,15,10.80
2002,04,04,10,16,10.70
2002,04,04,10,17,10.70
2002,04,04,10,18,10.70
2002,04,04,10,19,10.60
2002,04,04,10,20,10.70
2002,04,04,10,21,10.70
2002,04,04,10,22,10.80
2002,04,04,10,23,10.80
2002,04,04,10,24,10.80
2002,04,04,10,25,10.80
2002,04,04,10,26,10.80
2002,04,04,10,27,10.90
2002,04,04,10,28,10.90
2002,04,04,10,29,10.90
2002,04,04,10,30,10.90
2002,04,04,10,31,10.90
2002,04,04,10,32,11.00
2002,04,04,10,33,11.00
2002,04,04,10,34,11.10
2002,04,04,10,35,11.10
2002,04,04,10,36,11.20
2002,04,04,10,37,11.20
2002,04,04,10,38,11.10
2002,04,04,10,39,11.10
2002,04,04,10,40,11.20
2002,04,04,10,41,11.10
2002,04,04,10,42,11.10
2002,04,04,10,43,11.10
2002,04,04,10,44,11.10
2002,04,04,10,45,11.10
2002,04,04,10,46,11.10
2002,04,04,10,47,11.20
2002,04,04,10,48,11.20
2002,04,04,10,49,11.20
2002,04,04,10,50,11.20
2002,04,04,10,51,11.30
2002,04,04,10,52,11.30
2002,04,04,10,53,11.40
2002,04,04,10,54,11.50
2002,04,04,10,55,11.60
2002,04,04,10,56,11.60
2002,04,04,10,57,11.70
2002,04,04,10,58,11.70
2002,04,04,10,59,11.70
2002,04,04,11,00,11.50
2002,04,04,11,01,11.40
2002,04,04,11,02,11.40
2002,04,04,11,03,11.30
2002,04,04,11,04,11.30
2002,04,04,11,05,11.40
2002,04,04,11,06,11.40
2002,04,04,11,07,11.50
2002,04,04,11,08,11.60
2002,04,04,11,09,11.60
2002,04,04,11,10,11.60
2002,04,04,11,11,11.60
2002,04,04,11,12,11.70
2002,04,04,11,13,11.70
2002,04,04,11,14,11.60
2002,04,04,11,15,11.50
2002,04,04,11,16,11.40
2002,04,04,11,17,11.40
2002,04,04,11,18,11.40
2002,04,04,11,19,11.40
2002,04,04,11,20,11.30
2002,04,04,11,21,11.30
2002,04,04,11,22,11.30
2002,04,04,11,23,11.30
2002,04,04,11,24,11.30
2002,04,04,11,25,11.30
2002,04,04,11,26,11.30
2002,04,04,11,27,11.40
2002,04,04,11,28,11.60
2002,04,04,11,29,11.70
2002,04,04,11,30,11.80
2002,04,04,11,31,11.90
2002,04,04,11,32,11.90
2002,04,04,11,33,11.90
2002,04,04,11,34,11.90
2002,04,04,11,35,11.90
2002,04,04,11,36,12.00
2002,04,04,11,37,12.00
2002,04,04,11,38,12.00
2002,04,04,11,39,12.10
2002,04,04,11,40,12.10
2002,04,04,11,41,12.20
2002,04,04,11,42,12.20
2002,04,04,11,43,12.30
2002,04,04,11,44,12.20
2002,04,04,11,45,12.20
2002,04,04,11,46,12.20
2002,04,04,11,47,12.20
2002,04,04,11,48,12.20
2002,04,04,11,49,12.10
2002,04,04,11,50,12.10
2002,04,04,11,51,12.10
2002,04,04,11,52,12.20
2002,04,04,11,53,12.30
2002,04,04,11,54,12.40
2002,04,04,11,55,12.30
2002,04,04,11,56,12.30
2002,04,04,11,57,12.30
2002,04,04,11,58,12.30
2002,04,04,11,59,12.30
2002,04,04,12,00,12.40
2002,04,04,12,01,12.50
2002,04,04,12,02,12.60
2002,04,04,12,03,12.50
2002,04,04,12,04,12.40
2002,04,04,12,05,12.40
2002,04,04,12,06,12.30
2002,04,04,12,07,12.40
2002,04,04,12,08,12.40
2002,04,04,12,09,12.50
2002,04,04,12,10,12.50
2002,04,04,12,11,12.60
2002,04,04,12,12,12.60
2002,04,04,12,13,12.70
2002,04,04,12,14,12.70
2002,04,04,12,15,12.80
2002,04,04,12,16,12.80
2002,04,04,12,17,12.80
2002,04,04,12,18,12.80
2002,04,04,12,19,12.80
2002,04,04,12,20,12.80
2002,04,04,12,21,12.90
2002,04,04,12,22,12.80
2002,04,04,12,23,12.80
2002,04,04,12,24,12.80
2002,04,04,12,25,12.70
2002,04,04,12,26,12.70
2002,04,04,12,27,12.70
2002,04,04,12,28,12.70
2002,04,04,12,29,12.70
2002,04,04,12,30,12.80
2002,04,04,12,31,12.80
2002,04,04,12,32,12.80
2002,04,04,12,33,12.80
2002,04,04,12,34,12.80
2002,04,04,12,35,12.80
2002,04,04,12,36,12.90
2002,04,04,12,37,12.90
2002,04,04,12,38,12.90
2002,04,04,12,39,12.90
2002,04,04,12,40,12.90
2002,04,04,12,41,12.90
2002,04,04,12,42,12.90
2002,04,04,12,43,13.00
2002,04,04,12,44,13.00
2002,04,04,12,45,13.10
2002,04,04,12,46,13.10
2002,04,04,12,47,13.00
2002,04,04,12,48,13.00
2002,04,04,12,49,13.10
2002,04,04,12,50,13.10
2002,04,04,12,51,13.10
2002,04,04,12,52,13.10
2002,04,04,12,53,13.10
2002,04,04,12,54,13.10
2002,04,04,12,55,13.20
2002,04,04,12,56,13.20
2002,04,04,12,57,13.30
2002,04,04,12,58,13.30
2002,04,04,12,59,13.40
2002,04,04,13,00,13.40
2002,04,04,13,01,13.40
2002,04,04,13,02,13.40
2002,04,04,13,03,13.40
2002,04,04,13,04,13.40
2002,04,04,13,05,13.40
2002,04,04,13,06,13.50
2002,04,04,13,07,13.50
2002,04,04,13,08,13.50
2002,04,04,13,09,13.40
2002,04,04,13,10,13.40
2002,04,04,13,11,13.50
2002,04,04,13,12,13.50
2002,04,04,13,13,13.50
2002,04,04,13,14,13.50
2002,04,04,13,15,13.50
2002,04,04,13,16,13.50
2002,04,04,13,17,13.60
2002,04,04,13,18,13.60
2002,04,04,13,19,13.60
2002,04,04,13,20,13.70
2002,04,04,13,21,13.70
2002,04,04,13,22,13.70
2002,04,04,13,23,13.70
2002,04,04,13,24,13.60
2002,04,04,13,25,13.60
2002,04,04,13,26,13.50
2002,04,04,13,27,13.50
2002,04,04,13,28,13.60
2002,04,04,13,29,13.60
2002,04,04,13,30,13.60
2002,04,04,13,31,13.70
2002,04,04,13,32,13.70
2002,04,04,13,33,13.70
2002,04,04,13,34,13.70
2002,04,04,13,35,13.90
2002,04,04,13,36,13.90
2002,04,04,13,37,14.00
2002,04,04,13,38,14.10
2002,04,04,13,39,14.00
2002,04,04,13,40,14.00
2002,04,04,13,41,13.90
2002,04,04,13,42,13.90
2002,04,04,13,43,13.90
2002,04,04,13,44,13.90
2002,04,04,13,45,13.90
2002,04,04,13,46,14.00
2002,04,04,13,47,14.00
2002,04,04,13,48,14.00
2002,04,04,13,49,13.90
2002,04,04,13,50,13.90
2002,04,04,13,51,13.90
2002,04,04,13,52,13.90
2002,04,04,13,53,13.80
2002,04,04,13,54,13.90
2002,04,04,13,55,13.90
2002,04,04,13,56,13.80
2002,04,04,13,57,13.90
2002,04,04,13,58,14.00
2002,04,04,13,59,14.10
2002,04,04,14,00,14.20
2002,04,04,14,01,14.30
2002,04,04,14,02,14.30
2002,04,04,14,03,14.30
2002,04,04,14,04,14.40
2002,04,04,14,05,14.50
2002,04,04,14,06,14.50
2002,04,04,14,07,14.40
2002,04,04,14,08,14.40
2002,04,04,14,09,14.30
2002,04,04,14,10,14.30
2002,04,04,14,11,14.40
2002,04,04,14,12,14.40
2002,04,04,14,13,14.50
2002,04,04,14,14,14.60
2002,04,04,14,15,14.60
2002,04,04,14,16,14.70
2002,04,04,14,17,14.70
2002,04,04,14,18,14.70
2002,04,04,14,19,14.80
2002,04,04,14,20,14.80
2002,04,04,14,21,14.80
2002,04,04,14,22,14.80
2002,04,04,14,23,14.80
2002,04,04,14,24,14.80
2002,04,04,14,25,14.90
2002,04,04,14,26,14.90
2002,04,04,14,27,14.80
2002,04,04,14,28,14.80
2002,04,04,14,29,14.80
2002,04,04,14,30,14.70
2002,04,04,14,31,14.80
2002,04,04,14,32,14.80
2002,04,04,14,33,14.90
2002,04,04,14,34,14.90
2002,04,04,14,35,14.90
2002,04,04,14,36,14.90
2002,04,04,14,37,14.90
2002,04,04,14,38,14.90
2002,04,04,14,39,14.90
2002,04,04,14,40,15.00
2002,04,04,14,41,14.90
2002,04,04,14,42,14.90
2002,04,04,14,43,14.90
2002,04,04,14,44,14.90
2002,04,04,14,45,14.80
2002,04,04,14,46,14.80
2002,04,04,14,47,14.90
2002,04,04,14,48,15.00
2002,04,04,14,49,15.20
2002,04,04,14,50,15.20
2002,04,04,14,51,15.20
2002,04,04,14,52,15.20
2002,04,04,14,53,15.10
2002,04,04,14,54,15.10
2002,04,04,14,55,15.10
2002,04,04,14,56,15.10
2002,04,04,14,57,15.10
2002,04,04,14,58,15.10
2002,04,04,14,59,15.10
2002,04,04,15,00,15.10
2002,04,04,15,01,15.10
2002,04,04,15,02,15.10
2002,04,04,15,03,15.20
2002,04,04,15,04,15.10
2002,04,04,15,05,15.10
2002,04,04,15,06,15.10
2002,04,04,15,07,15.10
2002,04,04,15,08,15.10
2002,04,04,15,09,15.10
2002,04,04,15,10,15.10
2002,04,04,15,11,15.20
2002,04,04,15,12,15.20
2002,04,04,15,13,15.30
2002,04,04,15,14,15.30
2002,04,04,15,15,15.30
2002,04,04,15,16,15.30
2002,04,04,15,17,15.40
2002,04,04,15,18,15.30
2002,04,04,15,19,15.30
2002,04,04,15,20,15.30
2002,04,04,15,21,15.30
2002,04,04,15,22,15.30
2002,04,04,15,23,15.30
2002,04,04,15,24,15.40
2002,04,04,15,25,15.40
2002,04,04,15,26,15.50
2002,04,04,15,27,15.40
2002,04,04,15,28,15.40
2002,04,04,15,29,15.40
2002,04,04,15,30,15.40
2002,04,04,15,31,15.40
2002,04,04,15,32,15.30
2002,04,04,15,33,15.30
2002,04,04,15,34,15.30
2002,04,04,15,35,15.30
2002,04,04,15,36,15.30
2002,04,04,15,37,15.30
2002,04,04,15,38,15.20
2002,04,04,15,39,15.20
2002,04,04,15,40,15.10
2002,04,04,15,41,15.10
2002,04,04,15,42,15.10
2002,04,04,15,43,15.10
2002,04,04,15,44,15.20
2002,04,04,15,45,15.20
2002,04,04,15,46,15.10
2002,04,04,15,47,15.10
2002,04,04,15,48,15.10
2002,04,04,15,49,15.10
2002,04,04,15,50,15.20
2002,04,04,15,51,15.10
2002,04,04,15,52,15.10
2002,04,04,15,53,15.20
2002,04,04,15,54,15.10
2002,04,04,15,55,15.20
2002,04,04,15,56,15.20
2002,04,04,15,57,15.20
2002,04,04,15,58,15.30
2002,04,04,15,59,15.30
2002,04,04,16,00,15.30
2002,04,04,16,01,15.40
2002,04,04,16,02,15.40
2002,04,04,16,03,15.50
2002,04,04,16,04,15.50
2002,04,04,16,05,15.60
2002,04,04,16,06,15.60
2002,04,04,16,07,15.60
2002,04,04,16,08,15.60
2002,04,04,16,09,15.60
2002,04,04,16,10,15.70
2002,04,04,16,11,15.70
2002,04,04,16,12,15.60
2002,04,04,16,13,15.60
2002,04,04,16,14,15.60
2002,04,04,16,15,15.70
2002,04,04,16,16,15.70
2002,04,04,16,17,15.80
2002,04,04,16,18,15.70
2002,04,04,16,19,15.70
2002,04,04,16,20,15.70
2002,04,04,16,21,15.70
2002,04,04,16,22,15.70
2002,04,04,16,23,15.80
2002,04,04,16,24,15.80
2002,04,04,16,25,15.80
2002,04,04,16,26,15.80
2002,04,04,16,27,15.80
2002,04,04,16,28,15.70
2002,04,04,16,29,15.70
2002,04,04,16,30,15.70
2002,04,04,16,31,15.70
2002,04,04,16,32,15.60
2002,04,04,16,33,15.60
2002,04,04,16,34,15.60
2002,04,04,16,35,15.60
2002,04,04,16,36,15.50
2002,04,04,16,37,15.50
2002,04,04,16,38,15.50
2002,04,04,16,39,15.50
2002,04,04,16,40,15.50
2002,04,04,16,41,15.40
2002,04,04,16,42,15.40
2002,04,04,16,43,15.40
2002,04,04,16,44,15.50
2002,04,04,16,45,15.40
2002,04,04,16,46,15.50
2002,04,04,16,47,15.50
2002,04,04,16,48,15.50
2002,04,04,16,49,15.60
2002,04,04,16,50,15.60
2002,04,04,16,51,15.60
2002,04,04,16,52,15.60
2002,04,04,16,53,15.60
2002,04,04,16,54,15.60
2002,04,04,16,55,15.60
2002,04,04,16,56,15.60
2002,04,04,16,57,15.50
2002,04,04,16,58,15.50
2002,04,04,16,59,15.40
2002,04,04,17,00,15.40
2002,04,04,17,01,15.40
2002,04,04,17,02,15.40
2002,04,04,17,03,15.40
2002,04,04,17,04,15.40
2002,04,04,17,05,15.40
2002,04,04,17,06,15.40
2002,04,04,17,07,15.40
2002,04,04,17,08,15.30
2002,04,04,17,09,15.30
2002,04,04,17,10,15.30
2002,04,04,17,11,15.30
2002,04,04,17,12,15.30
2002,04,04,17,13,15.30
2002,04,04,17,14,15.30
2002,04,04,17,15,15.30
2002,04,04,17,16,15.30
2002,04,04,17,17,15.30
2002,04,04,17,18,15.30
2002,04,04,17,19,15.30
2002,04,04,17,20,15.30
2002,04,04,17,21,15.30
2002,04,04,17,22,15.30
2002,04,04,17,23,15.20
2002,04,04,17,24,15.20
2002,04,04,17,25,15.20
2002,04,04,17,26,15.10
2002,04,04,17,27,15.10
2002,04,04,17,28,15.10
2002,04,04,17,29,15.00
2002,04,04,17,30,15.00
2002,04,04,17,31,15.00
2002,04,04,17,32,15.00
2002,04,04,17,33,15.00
2002,04,04,17,34,15.00
2002,04,04,17,35,15.00
2002,04,04,17,36,15.00
2002,04,04,17,37,15.00
2002,04,04,17,38,15.00
2002,04,04,17,39,15.00
2002,04,04,17,40,14.90
2002,04,04,17,41,14.90
2002,04,04,17,42,14.80
2002,04,04,17,43,14.80